www.pogodaiklimat.ru

Погода и климат >> Архив погоды >> Казахстан >> Жосалы


ПОГОДА в Жосалы

  • Прогноз погоды в Жосалы
  • Монитор погоды в Жосалы
  • Климат города

АРХИВ ПОГОДЫ в Жосалы

Время (UTC), дата Ветер
(напр.,м/с)
 
Видим.   Явления Облачность Т
(С)
Тd
(С)
f
(%)
Тe
(С)
Тes
(С)
Комфортность P
(гПа)
Po
(гПа)
Тmin
(С)
Tmax
(С)
R
(мм)
R24
(мм)
S
(см)
00 7.12 В 12-15
{15}
н/о ясно -8.5 -11.7 78 -20 -20 1021.7 1008.2
03 7.12 В 13-16
{16}
20 км 4/0
[Ac trans Ci sp]
-8.6 -11.0 83 -20 -20 1021.3 1007.8
06 7.12 СВ 12-15
{16}
50 км 8/0
[Ac cast Ci sp]
-6.3 -10.3 73 -17 -17 1020.5 1007.2 -8.6
09 7.12 СВ 12-15
{15}
50 км 8/0
[Ac cast Ci sp]
-1.1 -7.7 61 -10 -10 1018.2 1005.2
12 7.12 СВ 10
{15}
50 км 8/0
[Ac trans Ci sp]
-1.2 -10.1 51 -9 -9 1018.0 1005.0
15 7.12 В 9 н/о 9/6 600 м
[Sc Ac trans]
-2.2 -10.3 54 -10 -10 1017.5 1004.5 0.0
18 7.12 В 7 н/о 9/6 600 м
[Sc Ac trans]
-2.5 -7.3 70 -10 -10 1016.8 1003.7 0.0
21 7.12 СВ 10 н/о 6/6 600 м
[Sc]
-3.3 -7.2 74 -12 -12 1016.3 1003.2
00 8.12 В 12-15
{15}
н/о ясно -5.4 -9.2 75 -16 -16 1016.1 1002.9
03 8.12 СВ 12-15
{15}
20 км 9/9 600 м
[Sc]
-7.1 -10.5 77 -18 -18 1017.0 1003.7
06 8.12 СВ 13-17
{17}
50 км 8/5 600 м
[Sc Ac trans]
-6.7 -12.3 64 -18 -18 1017.9 1004.6 -7.1
09 8.12 СВ 13-17
{17}
50 км 8/4 600 м
[Sc Ac trans Ci sp]
-3.2 -11.5 53 -13 -13 1017.2 1004.1
12 8.12 СВ 5
{17}
50 км 8/4 600 м
[Sc Ac trans Ci sp]
-2.2 -11.3 50 -8 -8 1017.6 1004.6
15 8.12 СВ 11 н/о 9/6 600 м
[Sc Ci sp]
-3.6 -9.7 63 -13 -13 1017.7 1004.6 -1.5
18 8.12 СВ 7 н/о 8/0
[Ac trans Ci sp]
-4.6 -10.3 64 -12 -12 1018.2 1005.0 -1.5
21 8.12 СВ 5 н/о 10/4 600 м
[Sc Ac und]
-4.9 -9.8 68 -12 -12 1018.2 1005.0
00 9.12 СВ 7 н/о 10/10 600 м
[Sc]
-4.1 -8.3 73 -12 -12 1018.2 1005.1
03 9.12 СВ 7 20 км 10/10 600 м
[Sc]
-4.2 -7.6 77 -12 -12 1018.7 1005.6
06 9.12 СВ 8 4000 м дымка 10/10 600 м
[Sc]
-4.4 -6.7 84 -13 -13 1019.6 1006.5 -5.5
09 9.12 СВ 5 4000 м дымка 10/10 600 м
[Sc]
-2.4 -5.0 82 -9 -9 1019.5 1006.4
12 9.12 С 4 4000 м дымка 10/10 600 м
[Sc]
-0.7 -3.5 81 -6 -6 1020.4 1007.4
15 9.12 СВ 3 н/о 10/10 600 м
[Sc]
-1.6 -5.3 76 -6 -6 1021.5 1008.4 -0.4
18 9.12 С 4 н/о 10/10 600 м
[Sc]
-2.5 -5.1 82 -8 -8 1022.4 1009.2 -0.4
21 9.12 СЗ 3 н/о 10/10 600 м
[Sc]
-2.9 -5.2 84 -8 -8 1023.0 1009.8
00 10.12 СЗ 3 н/о 10/10 600 м
[Sc]
-3.1 -5.1 86 -8 -8 1023.6 1010.4
03 10.12 СЗ 2 н/о 10/10 600 м
[Sc]
-3.3 -5.0 88 -7 -7 1024.6 1011.4
06 10.12 штиль 0 500 м туман ?/? -3.0 -3.0 100 -4 -4 1026.1 1012.8 -3.3
09 10.12 СЗ 2 50 км {туман} 10/10 600 м
[Sc]
-1.3 -3.0 88 -5 -5 1025.7 1012.5
12 10.12 З 3 50 км {туман} 10/10 600 м
[Sc]
-1.8 -4.2 84 -7 -7 1027.3 1014.1
15 10.12 СЗ 5 н/о 10/10 600 м
[Sc]
-3.2 -5.6 83 -10 -10 1028.7 1015.4 -0.8
18 10.12 В 1 н/о 10/10 600 м
[Sc]
-4.2 -6.5 84 -6 -6 1029.1 1015.8 -0.8
21 10.12 С 2 н/о 10/10 600 м
[Sc]
-4.6 -6.6 86 -9 -9 1029.2 1015.8
00 11.12 штиль 0 н/о 10/10 600 м
[Sc]
-5.5 -7.3 87 -6 -6 1029.7 1016.3
03 11.12 СВ 3 н/о 10/10 600 м
[Sc]
-6.6 -8.6 86 -12 -12 1030.3 1016.8
06 11.12 СВ 1 50 км {снег} 8/8 600 м
[Sc]
-6.6 -9.0 83 -9 -8 1031.9 1018.4 -6.6
09 11.12 штиль 0 50 км 3/0
[Ci sp]
-3.1 -8.1 68 -4 -1 1030.6 1017.3
12 11.12 В 1 50 км 3/0
[Ci sp]
-2.1 -8.8 60 -4 -4 1030.4 1017.2
15 11.12 СВ 2 н/о ясно -7.6 -12.1 70 -12 -12 1031.4 1017.9 -1.2
18 11.12 В 2 н/о в посл. час туман 10/10 600 м
[St]
-6.5 -7.0 96 -11 -11 1031.4 1017.9 -1.2 0.0
21 11.12 В 1 н/о 10/10 600 м
[Sc]
-6.0 -7.5 89 -8 -8 1030.8 1017.4
00 12.12 СВ 2 н/о 10/10 600 м
[Sc]
-6.1 -7.6 89 -11 -11 1030.6 1017.2
03 12.12 СВ 4 н/о дымка 10/10 600 м
[St]
-6.5 -7.7 91 -13 -13 1031.0 1017.5
06 12.12 В 3 4000 м дымка {туман} 10/10 300 м
[St]
-5.6 -6.7 92 -11 -11 1031.5 1018.1 -7.6
09 12.12 В 5 50 км 9/9 600 м
[Sc]
-2.2 -5.0 81 -9 -9 1030.0 1016.8
12 12.12 СВ 4 50 км 10/10 600 м
[Sc]
-1.5 -4.2 82 -7 -7 1029.6 1016.4
15 12.12 В 4 н/о дымка 10/10 300 м
[St]
-1.1 -1.8 95 -7 -7 1029.2 1016.0 -1.0
18 12.12 В 5 н/о слабая переохл. морось (гололёд) 10/10 300 м
[St]
-0.8 -1.5 95 -7 -7 1028.9 1015.7 -1.0
21 12.12 В 5 н/о {морось} 10/10 300 м
[St]
-0.8 -1.8 93 -7 -7 1028.6 1015.4
00 13.12 В 8 н/о {морось} 10/10 300 м
[St]
-1.0 -2.0 93 -9 -9 1028.6 1015.4
03 13.12 В 10 н/о 10/10 600 м
[Sc]
+0.4 -2.1 83 -8 -8 1027.8 1014.7
06 13.12 В 9 50 км 10/10 600 м
[Sc]
+0.7 -1.9 83 -7 -7 1028.1 1015.0 -1.2 0.0
09 13.12 В 6 50 км 9/9 600 м
[Sc]
+1.4 -2.7 74 -5 -5 1027.0 1013.9
12 13.12 В 10 50 км 10/10 600 м
[Sc]
+0.8 -1.5 85 -7 -7 1026.8 1013.7
15 13.12 В 9 н/о 10/10 600 м
[Sc]
+0.6 -1.4 86 -7 -7 1026.5 1013.4 +1.8
18 13.12 В 9 н/о 10/10 600 м
[Sc]
+0.3 -1.4 88 -8 -8 1026.0 1012.9 +1.8
21 13.12 В 10 н/о 10/10 600 м
[Sc]
+0.9 -0.8 88 -7 -7 1025.0 1012.0

 

Местоположение метеостанции Жосалы (Кызылординская область, Казахстан): широта 45.50 долгота 64.08 высота над уровнем моря 103 м.

В архиве по умолчанию представлена погода в Жосалы за последнюю неделю. Архивные данные за месяц целиком и за предыдущие месяцы, начиная с января 2011 года, Вы можете получить, выбрав интересующий диапазон дат из раскрывающегося списка и нажав кнопку "Ввод!".


*Определитесь, кто Вы:
робот инопланетянин человек

Внимание! Время в таблицах - всемирное. Для получения местного времени необходимо прибавить поправку, которая в Жосалы равна 6 ч.

Смотрите также архив погоды в соседних городах и на ближайших метеорологических станциях:

Погода в Акае (Кызылординская область, Казахстан) (64 км)
Погода в Жалагаше (Кызылординская область, Казахстан) (66 км)
Погода в Караке (Кызылординская область, Казахстан) (99 км)
Погода в Кызылорде (Кызылординская область, Казахстан) (133 км)
Погода в Тасбугете (Кызылординская область, Казахстан) (140 км)
Погода в Казалинске (Кызылординская область, Казахстан) (155 км)
Погода в Ширик-Рабате (Кызылординская область, Казахстан) (184 км)
Погода в Каукее (Кызылординская область, Казахстан) (189 км)
Погода в Акбакае (Жамбылская область, Казахстан) (228 км)
Погода в Кульжамбае (Карагандинская область, Казахстан) (232 км)

Пояснения к столбцам:

Ветер - указаны скорость ветра в м/с - средняя за 10 мин, порывы в срок и между сроками (в фигурных скобках) и направление, откуда дует ветер: С - северный, СВ - северо-восточный, В - восточный, ЮВ - юго-восточный, Ю - южный, ЮЗ - юго-западный, З - западный, СЗ - северо-западный.
Видимость - горизонтальная дальность видимости в метрах или километрах. При видимости от 1 до 10 км при отсутствии осадков обычно наблюдается дымка, при ухудшении видимости до 1 км и менее - туман. В сухую погоду видимость может ухудшаться дымом, пылью или мглою.
Явления - указаны атмосферные явления, наблюдавшиеся в срок или в последний час перед сроком; фигурными скобками обозначены явления, наблюдавшиеся между сроками (за 1-3 часа до срока); квадратными скобками обозначены град или гололедные отложения с указанием их диаметра в мм.
Облачность - указаны через наклонную черту общая и нижняя облачность в баллах и высота нижней границы облаков в метрах; квадратными скобками обозначены формы облаков: Ci - перистые, Cs - перисто-слоистые, Cc - перисто-кучевые, Ac - высококучевые, As - высокослоистые, Sc - слоисто-кучевые, Ns - слоисто-дождевые, Cu - кучевые, Cb - кучево-дождевые. Подробнее классификацию облаков см. в Атласе облаков (PDF).
T - Температура воздуха - температура, измеренная на высоте 2 м над землей.
Td - Температура точки росы - температура, при понижении до которой содержащийся в воздухе водяной пар достигнет насыщения.
f - Относительная влажность воздуха - влажноcть воздуха, измеренная на высоте 2 м над землей.
Te - Эффективная температура - температура, которую ощущает одетый по сезону человек в тени. Характеристика душности погоды. При расчете учитывается влияние влажности воздуха и скорости ветра на теплоощущения человека.
Tes - Эффективная температура на солнце - температура, которую ощущает человек, с поправкой на солнечный нагрев. Характеристика знойности погоды. Зависит от высоты солнца над горизонтом, облачности и скорости ветра. Ночью, в пасмурную погоду, а также при ветре 12 м/с и более поправка равна нулю.
P - Атмосферное давление - приведенное к уровню моря атмосферное давление.
Po - Атмосферное давление - измеренное на уровне метеостанции атмосферное давление.
Tmin - Минимальная температура - минимум температуры воздуха на высоте 2 м над землей.
Tmax - Максимальная температура - максимум температуры воздуха на высоте 2 м над землей.
R - Количество осадков - Количество выпавших осадков за период времени, мм. При наведении курсора мыши на число - период времени, за который выпало указанное количество осадков.
R24 - Количество осадков - Количество выпавших осадков за 24 часа, мм.
S - Снежный покров - Высота снежного покрова, см. При наведении курсора мыши на число - состояние снежного покрова и степень покрытия местности в баллах.